Location: Saint-Usage
(47.1052°N, 5.2587°E)
Time: 16:05:43
(UTC+01:00)

NOAA 19 - Visible Passes

Search period start: 28 November 2021 00:00
Search period end: 08 December 2021 00:00
Orbit: 840 x 861 km, 99.2° (Epoch: 28 November)

Date Brightness Start Highest point End Pass type
(mag) Time Alt. Az. Time Alt. Az. Time Alt. Az.
28 Nov 6.7 17:28:28 10° E 17:31:27 15° NE 17:34:27 10° NNE visible
28 Nov 5.0 19:05:50 10° SSE 19:11:17 81° ENE 19:16:46 10° NNW visible
28 Nov 7.8 20:49:23 10° SW 20:52:36 16° W 20:55:49 10° NW visible
29 Nov 7.6 07:25:02 10° NE 07:29:39 27° E 07:34:15 10° SSE visible
29 Nov 5.1 18:54:06 10° SSE 18:59:29 66° ENE 19:04:55 10° N visible
29 Nov 7.5 20:36:43 10° SW 20:40:37 20° W 20:44:33 10° NW visible
30 Nov 7.9 07:13:34 10° NE 07:17:43 21° E 07:21:52 10° SE visible
30 Nov 5.2 18:42:27 10° SE 18:47:43 53° ENE 18:53:02 10° N visible
30 Nov 7.2 20:24:17 10° SSW 20:28:41 25° W 20:33:07 10° NW visible
01 Dec 8.0 07:02:13 10° NE 07:05:46 17° E 07:09:17 10° SE visible
01 Dec 5.5 18:30:52 10° SE 18:35:59 43° ENE 18:41:07 10° N visible
01 Dec 6.8 20:11:59 10° SSW 20:16:45 31° W 20:21:34 10° NW visible
02 Dec 8.2 06:51:08 10° ENE 06:53:46 13° E 06:56:25 10° ESE visible
02 Dec 5.7 18:19:22 10° SE 18:24:15 35° ENE 18:29:11 10° N visible
02 Dec 6.5 19:59:48 10° SSW 20:04:51 38° W 20:09:57 10° NNW visible
03 Dec 8.6 06:41:01 10° ENE 06:41:46 10° E 06:42:31 10° E visible
03 Dec 6.0 18:07:57 10° ESE 18:12:33 29° ENE 18:17:11 10° N visible
03 Dec 6.0 19:47:43 10° S 19:52:58 48° W 19:58:16 10° NNW visible
04 Dec 6.2 17:56:36 10° ESE 18:00:52 24° ENE 18:05:08 10° N visible
04 Dec 5.6 19:35:44 10° S 19:41:07 60° WSW 19:46:32 10° NNW visible
05 Dec 6.4 17:45:23 10° ESE 17:49:13 20° ENE 17:53:02 10° NNE visible
05 Dec 5.3 19:23:50 10° S 19:29:16 75° WSW 19:34:46 10° NNW visible
05 Dec 8.1 21:09:27 10° W 21:10:52 11° W 21:12:16 10° WNW visible
06 Dec 6.6 17:34:17 10° E 17:37:34 16° NE 17:40:51 10° NNE visible
06 Dec 5.1 19:12:00 10° SSE 19:17:27 88° ENE 19:22:58 10° NNW visible
06 Dec 7.9 20:56:01 10° WSW 20:58:51 14° W 21:01:43 10° NW visible
07 Dec 7.5 07:31:07 10° NE 07:35:54 29° E 07:40:40 10° SSE visible
07 Dec 6.8 17:23:24 10° E 17:25:56 13° NE 17:28:30 10° NNE visible
07 Dec 5.0 19:00:14 10° SSE 19:05:39 72° ENE 19:11:08 10° NNW visible
07 Dec 7.6 20:43:13 10° SW 20:46:52 18° W 20:50:33 10° NW visible
